Location: Amage
(47.8372°N, 6.4891°E)
Time: 03:52:30
(UTC+00:00)

Daily predictions for brighter satellites

Satellite Brightness Start Highest point End
(mag) Time Altitude Azimuth Time Altitude Azimuth Time Altitude Azimuth
Cosmos 2082 Rocket 4.5 01:29:19 20° NE 01:29:19 20° NE 01:31:03 10° NNE
CENTAUR R/B 4.5 01:40:37 10° NW 01:47:16 32° NNE 01:54:46 10° E
CZ-2D R/B 4.4 02:07:14 10° N 02:08:22 16° N 02:08:22 16° N
MSX 4.4 02:33:44 10° NNE 02:38:23 54° NE 02:38:23 54° NE
Lacrosse 5 3.2 02:42:08 36° ENE 02:42:08 36° ENE 02:45:46 10° E
Cosmos 2360 Rocket 3.0 02:41:57 10° NNW 02:47:30 49° NE 02:52:59 10° SE
Resurs 1-4 Rocket 4.4 02:46:04 10° N 02:47:06 14° NNW 02:47:06 14° NNW
ARIANE 5 R/B 3.5 02:50:05 10° NNE 02:53:20 41° NNE 02:53:20 41° NNE
CZ-2C R/B 3.5 02:55:06 10° NNE 02:59:32 37° E 02:59:46 37° ESE
Cosmos 2333 Rocket 3.7 03:03:43 10° NNW 03:09:02 36° NE 03:14:21 10° ESE
Cosmos 2082 Rocket 3.6 03:11:10 26° NNW 03:11:10 26° NNW 03:14:49 10° NNE
H-2A R/B 4.4 03:07:09 10° ESE 03:10:23 22° ENE 03:13:35 10° NNE
Spot 4 Rocket 4.2 03:07:28 10° NNE 03:12:07 71° NE 03:12:07 71° NE
ADEOS II 3.9 03:09:04 10° N 03:11:05 20° NNW 03:11:05 20° NNW
USA 267 3.3 03:10:01 10° NE 03:16:27 62° NNW 03:17:26 56° WNW
IDEFIX/ARIANE 42P 3.6 03:13:40 10° N 03:16:53 33° NNW 03:16:53 33° NNW
NOSS 3-2 (A) 4.1 03:14:54 10° NW 03:22:21 80° NE 03:30:50 10° SE
BREEZE-M DEB (TANK) 3.5 03:22:53 71° SE 03:22:53 71° SE 03:25:50 10° ENE
Cosmos 1553 Rocket 3.9 03:26:49 66° WSW 03:27:19 70° W 03:33:35 10° N
Cosmos 1417 Rocket 4.4 03:29:15 60° SW 03:30:22 76° W 03:36:45 10° N
Cosmos 2219 Rocket 3.3 03:26:55 10° NNW 03:32:21 44° NE 03:37:45 10° SE
COSMOS 2487 4.2 03:35:20 29° ESE 03:35:32 29° ESE 03:38:32 10° NE
CENTAUR R/B 3.3 03:31:19 10° NW 03:39:19 74° NE 03:48:11 10° SE
PAYLOAD A 4.0 03:34:10 10° NNE 03:39:29 87° WNW 03:40:51 52° SSW
COSMOS 2428 3.8 03:34:31 10° NNW 03:39:59 44° NE 03:45:26 10° SE
Cosmos 1606 3.5 03:42:18 41° SE 03:43:12 52° E 03:47:01 10° NNE
Cosmos 2315 Rocket 4.4 03:38:27 10° S 03:44:32 63° E 03:50:40 10° NNE
PSLV R/B 3.7 03:41:55 10° NNE 03:46:19 74° ESE 03:47:30 47° S
BREEZE-M DEB (TANK) 4.3 03:50:58 19° NE 03:50:58 19° NE 03:51:43 10° ENE
BREEZE M DEB (TANK) 2.4 03:51:34 55° NE 03:51:34 55° NE 03:55:35 10° E
Lacrosse 4 Rocket 1.6 03:51:56 61° SSW 03:51:56 61° SSW 03:55:44 10° SSE
USA 234 3.8 03:46:00 10° SSE 03:51:15 35° SW 03:51:15 35° SW
ISS -3.1 03:58:45 49° NNE 03:58:45 49° NNE 04:02:01 10° E
ATLAS 5 CENTAUR R/B 3.8 03:56:20 10° SSE 03:59:11 19° ESE 04:02:15 10° ENE
Cosmos 1805 Rocket 3.6 03:54:58 10° N 03:59:28 82° E 04:03:56 10° S
Cosmos 1743 Rocket 3.9 03:56:10 10° NNW 03:59:51 48° WNW 03:59:51 48° WNW
NOSS 3-2 (C) 4.1 03:55:31 10° NW 04:03:01 86° NE 04:11:33 10° SE
Cosmos 2322 3.7 03:57:27 10° NNW 04:03:11 87° ENE 04:08:51 10° SSE
Cosmos 1992 Rocket 4.0 03:58:40 10° NNW 04:03:46 56° WSW 04:08:50 10° S
Cosmos 2221 3.2 04:04:41 36° NW 04:04:41 36° NW 04:08:03 10° N
COSMO-SKYMED 1 4.1 04:01:46 10° SE 04:05:46 37° ENE 04:09:47 10° N
SL-27 R/B 4.2 04:08:12 22° NNW 04:08:12 22° NNW 04:10:02 10° N
Cosmos 1933 4.4 04:03:30 10° SSE 04:07:20 45° E 04:11:13 10° NNE
FENGYUN 3A 3.6 04:04:42 10° NNE 04:10:11 90° NW 04:15:37 10° SSW
BREEZE-M DEB (TANK) 3.5 04:08:38 36° WNW 04:10:28 82° NNE 04:24:06 10° E
Cosmos 2344 3.5 04:06:15 28° SW 04:10:32 78° NW 04:18:40 10° NE
Cosmos 1833 4.1 04:12:28 29° SW 04:15:23 70° WNW 04:21:02 10° NNE
ATLAS 2AS CENTAUR R/B 4.4 04:09:04 10° S 04:16:03 36° ESE 04:23:00 10° NE
S3M 4.3 04:13:56 30° WSW 04:16:20 43° WNW 04:22:14 10° N
CBERS 1 LM4 rocket 4.3 04:13:26 10° NNE 04:18:16 82° ESE 04:23:00 10° SSW
Meteor 1-20 Rocket 4.4 04:13:51 10° N 04:19:33 77° ENE 04:25:20 10° SSE
Landsat 5 3.4 04:18:43 33° SSW 04:20:01 46° W 04:23:48 10° NNW
Sich 1 2.9 04:16:51 10° NNW 04:21:17 79° W 04:25:40 10° S
Cosmos 1666 Rocket 3.9 04:18:34 10° N 04:22:56 68° E 04:27:18 10° SSE
CZ-2C R/B 4.1 04:20:11 10° N 04:22:37 23° NW 04:22:37 23° NW
Lacrosse 5 1.9 04:21:22 26° WNW 04:24:08 61° SW 04:29:06 10° SE
SJ-6F 4.3 04:20:34 10° N 04:24:45 76° WNW 04:28:32 12° SSW
ALOS 2.2 04:21:24 10° N 04:26:03 65° WNW 04:30:10 13° SSW
ADEOS 4.0 04:21:04 10° NNE 04:26:17 65° ESE 04:31:28 10° S
Meteor 1-31 Rocket 3.3 04:25:39 10° NNE 04:29:30 61° E 04:33:17 10° S
Cosmos 2184 Rocket 4.4 04:24:43 10° N 04:31:03 70° E 04:37:24 10° SSE
Cosmos 2360 Rocket 2.9 04:26:22 10° NW 04:31:16 31° WSW 04:36:08 10° SSW
Cosmos 1709 Rocket 4.2 04:25:48 10° NNW 04:31:54 48° W 04:37:58 10° SSW
Cosmos 192 4.3 04:28:19 10° NNW 04:33:18 87° ENE 04:38:16 10° SSE
ARIANE 5 R/B 4.2 04:30:41 10° NNW 04:33:36 16° NW 04:33:41 16° WNW
Cosmos 2333 4.4 04:28:27 10° NW 04:34:02 51° WSW 04:39:36 10° S
CZ-4B R/B 2.0 04:32:23 10° SSE 04:35:25 53° ENE 04:38:25 10° N
Meteor 1-4 Rocket 4.3 04:37:51 18° NW 04:37:51 18° NW 04:39:38 10° NNW
Cosmos 2237 Rocket 3.3 04:31:34 10° NNW 04:37:03 46° NE 04:42:28 10° SE
USA 276 2.3 04:36:12 33° SW 04:37:25 64° SSE 04:40:37 10° ENE
CZ-2C R/B 3.2 04:33:33 10° N 04:37:39 29° WNW 04:39:09 24° W
Cosmos 909 Rocket 4.1 04:31:37 10° SSW 04:38:15 84° SE 04:44:35 10° NE
USA 238 DEB 4.1 04:36:15 10° NW 04:43:12 50° WSW 04:50:26 10° SSE
USA 238 4.0 04:36:21 10° NW 04:43:18 50° WSW 04:50:31 10° SSE
H-2A R/B 2.3 04:42:06 10° S 04:46:08 42° W 04:50:07 10° NNW
SeaSat 1 2.4 04:43:00 10° SSE 04:47:53 66° WSW 04:52:49 10° NNW
NOSS 0 Rocket 4.0 04:45:28 10° NNW 04:51:41 84° ENE 04:57:54 10° SSE
Cosmos 1484 Rocket 3.3 04:48:33 10° N 04:51:58 35° WNW 04:54:50 13° SW
ATLAS 3B R/B 3.6 04:45:26 10° NW 04:52:12 52° NE 04:59:14 10° ESE
Cosmos 1437 Rocket 2.9 04:49:13 10° S 04:53:18 80° E 04:57:20 10° NNE
Cosmos 2333 Rocket 2.5 04:47:59 10° NW 04:53:26 45° WSW 04:58:52 10° S
SKYMED 2 3.5 04:49:24 10° S 04:53:43 74° WSW 04:58:05 10° NNW
Cosmos 1151 Rocket 2.9 04:50:30 10° S 04:54:49 86° W 04:59:09 10° N
CZ-4C R/B 2.2 04:50:12 10° SSW 04:55:07 79° SE 05:01:07 10° NE
Cosmos 1633 Rocket 3.0 04:51:31 10° NNW 04:55:55 68° W 05:00:15 10° S
Cosmos 1782 2.8 04:52:48 10° S 04:56:44 84° ESE 05:00:43 10° N
Cosmos 2227 Rocket 4.4 04:52:27 10° SSE 04:57:11 28° ESE 05:01:56 10° NE
SL-16 R/B 4.2 04:53:24 10° NNW 04:58:19 29° NE 05:03:12 10° ESE
USA 267 4.1 04:52:52 10° ENE 04:58:53 41° N 05:04:48 10° WNW
MOS 1 Rocket 3.2 04:56:57 10° S 05:01:16 59° W 05:05:50 10° NNW
CZ-4B R/B 3.8 05:00:15 10° N 05:03:53 52° WNW 05:07:26 10° SSW
Cosmos 2251 Rocket 4.2 04:59:28 11° SW 05:04:10 37° WNW 05:09:11 10° N
Meteor 1-26 Rocket 4.3 05:01:12 10° SSW 05:06:55 79° WNW 05:12:52 10° N
H-2A R/B 4.5 04:56:34 12° WSW 05:07:51 25° SSW 05:12:25 10° SSE
COSMOS 2487 3.8 05:08:44 15° W 05:10:28 21° WNW 05:13:08 10° N
Meteor PRIRODA 3.8 05:07:43 10° NNE 05:11:28 82° ESE 05:15:12 10° SSW
Cosmos 1689 Rocket 3.0 05:09:34 10° SSE 05:12:18 49° ENE 05:15:04 10° N
Cosmos 2297 Rocket 3.5 05:07:13 10° S 05:12:33 45° ESE 05:17:54 10° NE
Nadezhda 1 Rocket 4.0 05:09:57 10° S 05:16:05 89° E 05:22:22 10° N
Cosmos 2219 Rocket 2.8 05:11:08 10° NW 05:16:11 34° WSW 05:21:14 10° S
Cosmos 1606 4.5 05:17:19 11° W 05:19:15 15° WNW 05:21:30 10° NNW
Cosmos 1980 3.7 05:15:50 10° NNW 05:21:32 85° WSW 05:27:12 10° SSE
Cosmos 1954 Rocket 4.5 05:16:26 10° S 05:21:40 68° ESE 05:26:53 10° NNE
COSMOS 2428 3.3 05:19:02 10° NW 05:24:10 35° WSW 05:29:18 10° S
Cosmos 1500 3.1 05:23:08 10° NNW 05:26:55 66° W 05:30:41 10° S
SAR-Lupe-1 4.1 05:23:53 10° SSE 05:27:28 87° ENE 05:31:04 10° NNW
Cosmos 407 Rocket 3.6 05:23:30 10° SW 05:28:34 54° WNW 05:33:37 10° NNE
CENTAUR R/B 3.8 05:22:28 10° NW 05:29:49 37° WSW 05:37:40 10° S
CZ-3 R/B 4.0 05:21:08 10° SW 05:29:56 18° SSW 05:34:31 10° SSE
Cosmos 1515 Rocket 3.5 05:26:15 10° SSW 05:30:35 77° W 05:34:58 10° N
Cosmos 1328 Rocket 3.8 05:26:47 10° SSW 05:30:54 44° WNW 05:35:03 10° N
Cosmos 2327 Rocket 4.5 05:28:23 10° NNW 05:34:24 62° W 05:40:22 10° S
